Tracking 28790 objects as of 18-Apr-2024
HD Live streaming from Space Station
objects crossing your sky now

CZ-3C DEB

Track CZ-3C DEB now!


NORAD ID: 40203
Int'l Code: 2012-008N
Perigee: 483.6 km
Apogee: 34,674.2 km
Inclination: 20.4 °
Period: 614.8 minutes
Semi major axis: 23949 km
RCS: Unknown
Launch date: February 24, 2012
Source: People's Republic of China (PRC)
Launch site: Xichang Space Center, China (XSC)

Note: This is SATELLITE DEBRIS
Your satellite tracking list
Your tracking list is empty




NASA's NSSDC Master Catalog

Two Line Element Set (TLE):
1 40203U 12008N   24109.07797954  .00001051  00000-0  51778-2 0  9991
2 40203  20.4489 138.5715 7137944 345.0253   1.8368  2.34232466 94017
Source of the keplerian elements: AFSPC